DMSP 5D-2 F13 DEB, 40436

Orbit data source: Space-Track

DMSP 5D-2 F13 DEB, 40436 is space debris in SSO originally from a launch on Fri, 24 Mar 1995 UTC launched from the Air Force Western Test Range (AFWTR). Debris objects in space refer to the collection of defunct objects orbiting the Earth. Examples of debris include non-operational satellites, rocket bodies, and fragments generated from explosions, collisions, or faulty payload assembly.

Loading next visibility...
DMSP 5D-2 F13 DEB details
Identifier
40436, 1995-015AN
Orbit
SSO
Last TLE update22 hours ago
Origin
Flag of USUSAF SMC (US)
ManufacturerUnknown
MissionSpacecraft
Bus & MotorUnknown
MassUnknown
Launch date (UTC)
1995-03-24 (30 years ago)
Launch vehicleUnknown
Launch site
Air Force Western Test Range (AFWTR)
Object type
Payload
Rocket body
Debris
Shape & HBRUnknown
Radar Cross SectionSmall (<0.1 m²)

Expand to show TLE details & history

TLE from 22 hours ago
0 DMSP 5D-2 F13 DEB
1 40436U 95015AN  24360.53775492  .00001504  00000-0  14318-2 0  9993
2 40436  98.8720 108.4839 0231430 112.3083 250.2776 13.70850508493043
Epoch: 2024-12-25T12:54Z
Definitive object data (Epoch: 2024-12-25T12:54:22.025Z)
Latitude
Longitude-179.63794°
Altitude1,060.43 km
Speed7.291 km/s
True Right ascension07h 13m 56s
True Declination0° 00' 00"
Sunlit
Object was in full shadow at TLE epoch
Visualization TLE readout
Latitude45.12618°
Longitude10.16801°
Altitude847.096 km
Speed7.512 km/s
Apparent Right ascension20h 52m 44s
Apparent Declination6° 04' 16"
Sunlit
Object is in daylight
Visualization observer readout
Local Sidereal Time09:54:54
Azimuth20.95° NNE
Elevation-41.831°
Doppler factor1
Orbital elements
Apogee altitude1,164.357 km
Perigee altitude823.142 km
Semi-major axis7,371.886 km
Eccentricity0.023143
Inclination98.872°
RAAN108.4839°
Arg. of periapsis112.3083°
True anomaly247.80609°
Mean anomaly250.2776°
Eccentric anomaly249.03935°
Mean motion3.42906 °/min
BSTAR0.0014318
Orbital period104.99 mins
Loading maneuver chart data...

DMSP 5D-2 F13 DEB Visibility forecast

Observer location: undefined°, undefined

Span
Click to sort rows by Start time (UTC) header in descending order
Start Az.
Max El. time (UTC)
Max El. Az.
Max El.
End time (UTC)
End Az.
7 mins2024-12-26 19:17:42.187Z47.419° ENE2024-12-26 19:21:42.187Z102.262° ESE21.932°2024-12-26 19:24:42.187Z140.716° SSE
8 mins2024-12-26 21:01:42.187Z350.401° N2024-12-26 21:04:42.187Z302.507° NW32.739°2024-12-26 21:09:42.187Z224.619° SW
9 mins2024-12-27 07:04:42.187Z149.827° SSE2024-12-27 07:08:42.187Z79.469° E42.374°2024-12-27 07:13:42.187Z353.611° N
5 mins2024-12-27 08:50:42.187Z242.623° WSW2024-12-27 08:52:42.187Z265.441° W16.027°2024-12-27 08:55:42.187Z299.683° NW
|